Benton Harbor, MI

3:26 PM EDT on August 20, 2017 (GMT -0400)
Southwest Michigan Regional

Weather History for KBEH - January, 2014

Change the Weather History Date:

Wednesday, January 1, 2014

  Actual Average Record
Temperature  
Mean Temperature 12 °F -  
Max Temperature 15 °F 32 °F 57 °F (2011)
Min Temperature 10 °F 18 °F -10 °F (1964)
Degree Days  
Heating Degree Days 52    
Moisture  
Dew Point 10 °F    
Average Humidity 87    
Maximum Humidity 93    
Minimum Humidity 79    
Precipitation  
Precipitation 0.07 in - - ()
Sea Level Pressure  
Sea Level Pressure 30.27 in    
Wind  
Wind Speed 7 mph (ENE)    
Max Wind Speed 14 mph    
Max Gust Speed 20 mph    
Visibility 2 miles    
Events Fog , Snow    
Averages and records for this station are not official NWS values.
T = Trace of Precipitation, MM = Missing Value Source: NWS Daily Summary

Daily Weather History Graph

Daily Weather History Graph

Search for Another Location

Airport or City:

Trip Planner

Search our weather history database for the weather conditions in past years. The results will help you decide how hot, cold, wet, or windy it might be!

Date:

Astronomy

Jan. 01, 2014 Rise Set
Actual Time 8:14 AM EST 5:24 PM EST
Civil Twilight 7:42 AM EST 5:56 PM EST
Nautical Twilight 7:07 AM EST 6:31 PM EST
Astronomical Twilight 6:33 AM EST 7:05 PM EST
Moon 8:02 AM EST (1/1) 6:10 PM EST (1/1)
Length of Visible Light 10h 13m
Length of Day
9h 10m
New Moon, 0% of the Moon is Illuminated
Jan 1
New Moon
Jan 7
First Quarter
Jan 15
Full
Jan 24
Last Quarter
Jan 30
New

Hourly Weather History & Observations

Time (EST) Temp. Windchill Dew Point Humidity Pressure Visibility Wind Dir Wind Speed Gust Speed Precip Events Conditions
12:00 AM 14.0 °F - 12.2 °F 93% 30.30 in 0.8 mi Calm Calm - 0.01 in Snow Light Snow
12:18 AM 14.0 °F 8.2 °F 12.2 °F 93% 30.30 in 1.0 mi East 3.5 mph - 0.01 in Snow Light Snow
12:37 AM 14.0 °F 8.2 °F 12.2 °F 93% 30.29 in 1.8 mi East 3.5 mph - 0.01 in Snow Light Snow
12:44 AM 14.0 °F 8.2 °F 12.2 °F 93% 30.28 in 2.0 mi East 3.5 mph - 0.01 in Snow Light Snow
12:53 AM 14.0 °F 8.2 °F 12.0 °F 92% 30.32 in 2.5 mi ESE 3.5 mph - 0.01 in Snow Light Snow
1:00 AM 14.0 °F 8.2 °F 12.2 °F 93% 30.28 in 2.0 mi ESE 3.5 mph - 0.00 in Snow Light Snow
1:09 AM 14.0 °F 8.2 °F 12.2 °F 93% 30.27 in 2.5 mi East 3.5 mph - 0.00 in Snow Light Snow
1:14 AM 14.0 °F 8.2 °F 12.2 °F 93% 30.27 in 3.0 mi East 3.5 mph - 0.00 in Snow Light Snow
1:53 AM 15.1 °F 9.4 °F 12.9 °F 91% 30.30 in 1.8 mi ENE 3.5 mph - 0.00 in Snow Light Snow
2:03 AM 15.8 °F - 12.2 °F 86% 30.27 in 1.2 mi Calm Calm - 0.01 in Snow Light Snow
2:13 AM 15.8 °F 10.2 °F 12.2 °F 86% 30.27 in 2.0 mi ENE 3.5 mph - 0.01 in Snow Light Snow
2:26 AM 15.8 °F 8.6 °F 12.2 °F 86% 30.27 in 4.0 mi East 4.6 mph - 0.01 in Snow Light Snow
2:53 AM 15.1 °F 6.4 °F 12.9 °F 91% 30.32 in 9.0 mi ENE 5.8 mph - 0.01 in   Overcast
3:53 AM 15.1 °F 3.3 °F 10.9 °F 84% 30.32 in 9.0 mi East 9.2 mph - 0.00 in   Overcast
4:53 AM 14.0 °F 1.2 °F 10.9 °F 88% 30.31 in 7.0 mi East 10.4 mph - N/A   Overcast
5:02 AM 14.0 °F 2.0 °F 10.4 °F 86% 30.27 in 7.0 mi East 9.2 mph - N/A   Overcast
5:23 AM 14.0 °F 2.9 °F 10.4 °F 86% 30.28 in 7.0 mi East 8.1 mph - N/A   Overcast
5:53 AM 14.0 °F 3.9 °F 10.0 °F 84% 30.33 in 9.0 mi ENE 6.9 mph - N/A   Overcast
6:49 AM 14.0 °F 2.0 °F 10.4 °F 86% 30.29 in 9.0 mi ENE 9.2 mph - N/A   Overcast
6:53 AM 14.0 °F 2.0 °F 10.0 °F 84% 30.34 in 9.0 mi ENE 9.2 mph - N/A   Overcast
7:53 AM 12.9 °F 0.7 °F 10.0 °F 88% 30.33 in 9.0 mi ENE 9.2 mph 16.1 mph N/A   Overcast
8:32 AM 12.2 °F -0.2 °F 10.4 °F 92% 30.30 in 1.8 mi ENE 9.2 mph - 0.00 in Snow Light Snow
8:41 AM 12.2 °F -2.5 °F 10.4 °F 92% 30.29 in 1.0 mi ENE 12.7 mph - 0.00 in Snow Light Snow
8:53 AM 12.9 °F -0.2 °F 10.0 °F 88% 30.33 in 1.0 mi ENE 10.4 mph - 0.00 in Snow Light Snow
9:41 AM 12.2 °F 0.7 °F 8.6 °F 85% 30.30 in 0.8 mi ENE 8.1 mph - 0.01 in Snow Light Snow
9:53 AM 12.9 °F 0.7 °F 9.0 °F 84% 30.35 in 0.5 mi ENE 9.2 mph - 0.01 in Fog , Snow Light Snow
10:45 AM 12.2 °F -1.8 °F 8.6 °F 85% 30.32 in 0.5 mi ENE 11.5 mph - 0.01 in Fog , Snow Snow
10:53 AM 12.9 °F 0.7 °F 9.0 °F 84% 30.36 in 0.5 mi ENE 9.2 mph - 0.01 in Fog , Snow Snow
11:53 AM 12.9 °F 0.7 °F 10.0 °F 88% 30.34 in 0.5 mi ENE 9.2 mph - 0.01 in Fog , Snow Snow
12:26 PM 12.2 °F -0.2 °F 8.6 °F 85% 30.27 in 0.8 mi ENE 9.2 mph - 0.00 in Snow Light Snow
12:38 PM 12.2 °F -1.8 °F 10.4 °F 92% 30.27 in 0.5 mi ENE 11.5 mph 18.4 mph 0.00 in Fog , Snow Snow
12:53 PM 12.9 °F 0.7 °F 10.0 °F 88% 30.31 in 0.5 mi ENE 9.2 mph - 0.00 in Fog , Snow Light Snow
1:32 PM 14.0 °F 3.9 °F 10.4 °F 86% 30.25 in 0.8 mi ENE 6.9 mph - 0.00 in Snow Light Snow
1:40 PM 14.0 °F -0.2 °F 8.6 °F 79% 30.25 in 1.0 mi ENE 12.7 mph - 0.00 in Snow Light Snow
1:51 PM 14.0 °F 1.2 °F 10.4 °F 86% 30.25 in 0.8 mi ENE 10.4 mph - 0.00 in Snow Light Snow
1:53 PM 14.0 °F 3.9 °F 10.0 °F 84% 30.29 in 0.8 mi ENE 6.9 mph - 0.00 in Snow Light Snow
2:15 PM 14.0 °F 2.0 °F 10.4 °F 86% 30.24 in 1.2 mi ENE 9.2 mph - 0.00 in Snow Light Snow
2:33 PM 14.0 °F 1.2 °F 10.4 °F 86% 30.24 in 0.8 mi ENE 10.4 mph 18.4 mph 0.00 in Snow Light Snow
2:49 PM 14.0 °F 1.2 °F 10.4 °F 86% 30.23 in 1.0 mi ENE 10.4 mph - 0.00 in Snow Light Snow
2:53 PM 14.0 °F 0.5 °F 10.0 °F 84% 30.27 in 1.0 mi ENE 11.5 mph 17.3 mph 0.00 in Snow Light Snow
3:29 PM 14.0 °F 2.9 °F 10.4 °F 86% 30.23 in 0.8 mi ENE 8.1 mph - 0.00 in Snow Light Snow
3:50 PM 12.2 °F -1.8 °F 8.6 °F 85% 30.22 in 0.5 mi ENE 11.5 mph 17.3 mph 0.01 in Fog , Snow Snow
3:53 PM 12.9 °F -0.2 °F 10.0 °F 88% 30.27 in 0.5 mi ENE 10.4 mph - 0.01 in Fog , Snow Snow
4:05 PM 12.2 °F -0.2 °F 10.4 °F 92% 30.23 in 0.8 mi ENE 9.2 mph - 0.00 in Snow Light Snow
4:38 PM 12.2 °F -0.2 °F 8.6 °F 85% 30.23 in 1.0 mi ENE 9.2 mph 16.1 mph 0.00 in Snow Light Snow
4:46 PM 12.2 °F 1.7 °F 8.6 °F 85% 30.23 in 0.8 mi ENE 6.9 mph - 0.00 in Snow Light Snow
4:53 PM 12.9 °F 0.7 °F 9.0 °F 84% 30.27 in 0.8 mi NE 9.2 mph - 0.00 in Snow Light Snow
5:08 PM 12.2 °F 2.9 °F 8.6 °F 85% 30.23 in 1.0 mi ENE 5.8 mph - 0.00 in Snow Light Snow
5:23 PM 12.2 °F -0.2 °F 8.6 °F 85% 30.23 in 1.2 mi ENE 9.2 mph - 0.00 in Snow Light Snow
5:35 PM 12.2 °F -3.1 °F 8.6 °F 85% 30.23 in 1.8 mi ENE 13.8 mph 19.6 mph 0.00 in Snow Light Snow
5:44 PM 12.2 °F -0.2 °F 8.6 °F 85% 30.23 in 2.0 mi ENE 9.2 mph 17.3 mph 0.00 in Snow Light Snow
5:53 PM 12.0 °F 0.5 °F 9.0 °F 88% 30.27 in 2.0 mi ENE 8.1 mph - 0.00 in Snow Light Snow
6:10 PM 12.2 °F -0.2 °F 8.6 °F 85% 30.23 in 1.8 mi ENE 9.2 mph - 0.00 in Snow Light Snow
6:39 PM 12.2 °F -1.0 °F 8.6 °F 85% 30.23 in 2.0 mi ENE 10.4 mph - 0.00 in Snow Light Snow
6:53 PM 12.0 °F -2.0 °F 8.1 °F 84% 30.27 in 2.5 mi ENE 11.5 mph - 0.00 in Snow Light Snow
7:22 PM 12.2 °F -1.8 °F 6.8 °F 79% 30.23 in 2.0 mi ENE 11.5 mph 18.4 mph 0.00 in Snow Light Snow
7:36 PM 10.4 °F -4.8 °F 6.8 °F 85% 30.23 in 2.5 mi ENE 12.7 mph 19.6 mph 0.00 in Snow Light Snow
7:53 PM 10.9 °F -1.8 °F 7.0 °F 84% 30.27 in 3.0 mi ENE 9.2 mph - 0.00 in Snow Light Snow
8:48 PM 10.4 °F -4.8 °F 6.8 °F 85% 30.23 in 2.0 mi ENE 12.7 mph - 0.00 in Snow Light Snow
8:53 PM 10.9 °F -2.6 °F 7.0 °F 84% 30.26 in 2.0 mi ENE 10.4 mph - 0.00 in Snow Light Snow
9:24 PM 10.4 °F -1.5 °F 6.8 °F 85% 30.22 in 4.0 mi ENE 8.1 mph 17.3 mph 0.00 in Snow Light Snow
9:53 PM 10.9 °F -2.6 °F 7.0 °F 84% 30.26 in 5.0 mi ENE 10.4 mph - 0.00 in   Overcast
10:42 PM 10.4 °F -3.3 °F 6.8 °F 85% 30.20 in 2.5 mi ENE 10.4 mph - 0.00 in Snow Light Snow
10:49 PM 10.4 °F -0.4 °F 6.8 °F 85% 30.20 in 4.0 mi ENE 6.9 mph 17.3 mph 0.00 in Snow Light Snow
10:53 PM 10.9 °F -3.4 °F 7.0 °F 84% 30.24 in 4.0 mi ENE 11.5 mph 17.3 mph 0.00 in Snow Light Snow
11:53 PM 12.0 °F 0.5 °F 7.0 °F 80% 30.23 in 1.8 mi ENE 8.1 mph - 0.01 in Snow Light Snow